Regional Weather Roundup
Issued by NWS

Home | Current Version | Previous Version | Text Only | Print | Product List | Glossary Off
Versions: 1 2 3 4 5 6 7 8 9 10 11 12 13 14 15 16 17 18 19 20 21 22 23 24 25 26 27 28 29 30 31 32 33 34 35 36 37 38 39 40 41 42 43 44 45 46 47 48 49 50

000
ASUS43 KLMK 160402
RWRKY
KENTUCKY REGIONAL WEATHER ROUNDUP
NATIONAL WEATHER SERVICE LOUISVILLE KY
1100 PM EST SUN JAN 15 2017

NOTE "FAIR" INDICATES FEW OR NO CLOUDS BELOW 12,000 FEET
WITH NO SIGNIFICANT WEATHER AND/OR OBSTRUCTIONS TO VISIBILITY.

KYZ001>023-026-027-061>063-070>075-160500-
WESTERN AND SOUTH CENTRAL KENTUCKY

CITY           SKY/WX    TMP DP  RH WIND       PRES   REMARKS
PADUCAH        CLOUDY    42  40  92 E6        30.24F FOG
HENDERSON      CLOUDY    41  37  87 SE3       30.28S
OWENSBORO      CLOUDY    41  40  96 E5        30.29S
HOPKINSVILLE   CLOUDY    45  45 100 SE5       30.25F
BOWLING GREEN  CLOUDY    45  44  97 E3        30.29R FOG
GLASGOW        NOT AVBL
$$

KYZ024-025-028>034-038-045-046-053-160500-
NORTH CENTRAL KENTUCKY

CITY           SKY/WX    TMP DP  RH WIND       PRES   REMARKS
LOUISVILLE/SDF CLOUDY    41  38  89 E5        30.29F
LOUISVILLE/LOU CLOUDY    41  38  89 E3        30.30F
FORT KNOX      CLOUDY    40  40 100 E3        30.26S FOG
$$

KYZ035>037-039>044-047>052-055>060-089>105-160500-
NORTHEAST KENTUCKY

CITY           SKY/WX    TMP DP  RH WIND       PRES   REMARKS
LEXINGTON      CLOUDY    41  38  89 NE8       30.29F
COVINGTON      FOG       37  36  96 E8        30.31S VSB 1   WCI  31
FRANKFORT      CLOUDY    40  37  89 NE6       30.28F
$$

KYZ054-064>069-076>088-106>120-160500-
SOUTHEAST KENTUCKY

CITY           SKY/WX    TMP DP  RH WIND       PRES   REMARKS
JACKSON        FOG       41  39  93 CALM      30.28F VSB 3/4
LONDON         FOG       44  42  93 CALM      30.28F VSB 1/2
SOMERSET       NOT AVBL
MIDDLESBORO    CLOUDY    50  50 100 CALM      30.29S
MONTICELLO     LGT RAIN  46  46 100 N13       30.30F VSB 1/2
$$





USA.gov is the U.S. government's official web portal to all federal, state and local government web resources and services.